Location: Waco, TX
(31.5480°N, 97.1670°W)
Time: 08:19:31
(UTC-05:00)

ISS - Pass Details

Date: 17 October 2019
Orbit: 411 x 421 km, 51.6° (Epoch: 18 October)

Event Time Altitude Azimuth Distance (km) Brightness Sun altitude
Rises 09:56:00 0° 247° (WSW) 2,352 -0.3 27.5°
Reaches altitude 10° 09:58:16 10° 259° (W) 1,490 -1.3 27.9°
Maximum altitude 10:01:13 28° 321° (NW) 811 -2.6 28.4°
Drops below altitude 10° 10:04:10 10° 23° (NNE) 1,491 -1.0 28.9°
Sets 10:06:27 0° 35° (NE) 2,354 0.1 29.3°
